Content
SEND FEEDBACK

Daily
Averages
Monthly
Summary
United States of America

HOWARD, SOUTH DAKOTA


Home > North America > United States > South Dakota
Elevation: 1553 feet     Latitude: 44 01N     Longitude: 097 31W

WEATHER
 
SELECT A DAY
Number of Records: 130,224;   Date Range: 3/17/09 - 9/1/14
 
SHARE

PRINT THIS DATA

[ ← Previous Day ]
WEATHER ALMANAC - JANUARY 23, 2013
[ Next Day → ]
[ °C ]   °F
Weather ElementAverageHighLow
Temperature6.1 °F12.2 °F (12:20 am)-4 °F (10:20 pm)
Dewpoint3.5 °F12.2 °F (12:20 am)-11.2 °F (11:00 pm)
Humidity89.1 %100 % (12:20 am)67 % (1:40 pm)
Barometer30.27 in30.50 in (10:00 pm)30.09 in (1:00 am)
Wind Speed12.4 mph20.7 mph (12:00 pm)
Wind Gust28.8 mph (3:00 pm)
Weather ElementAverage
Visibility10 mi
Wind DirectionWSW (235.4 °)

Weather ElementTotal
Precipitation---
Heating Degree Days60.9 (Base 65)
Averaged from 70 records on January 23, 2013
WEATHER CONDITIONS BREAKOUT
WIND DIRECTION BREAKOUT
WEATHER BY HOUR - JANUARY 23, 2013
[ °C ]   °F
Local TimeTemperatureDewpointHumidityBarometerVisibilityWind DirectionWind SpeedGust SpeedPrecipitationEventsConditions
12:20 AM12.2 °F12.2 °F100 %30.10 in10.0 miSSW (210°)10.4 mphMostly Cloudy
12:40 AM10.4 °F10.4 °F100 %30.10 in10.0 miSW (230°)4.6 mphPartly Cloudy
1:00 AM10.4 °F10.4 °F100 %30.09 in10.0 miSW (230°)5.8 mphMostly Cloudy
1:20 AM10.4 °F10.4 °F100 %30.09 in10.0 miSW (230°)5.8 mphMostly Cloudy
1:40 AM8.6 °F8.6 °F100 %30.09 in10.0 miWSW (240°)4.6 mphPartly Cloudy
2:00 AM8.6 °F8.6 °F100 %30.09 in10.0 miWest (260°)4.6 mphClear
2:20 AM8.6 °F8.6 °F100 %30.10 in10.0 miCalmScattered Clouds
2:40 AM6.8 °F6.8 °F100 %30.10 in10.0 miWNW (300°)4.6 mphPartly Cloudy
3:00 AM8.6 °F8.6 °F100 %30.09 in10.0 miWNW (300°)5.8 mphClear
3:20 AM6.8 °F6.8 °F100 %30.10 in10.0 miWNW (300°)8.1 mphClear
3:40 AM6.8 °F6.8 °F100 %30.09 in10.0 miWNW (290°)5.8 mphClear
4:00 AM6.8 °F6.8 °F100 %30.09 in10.0 miWNW (300°)6.9 mphClear
4:20 AM6.8 °F6.8 °F100 %30.09 in10.0 miWNW (300°)9.2 mphClear
4:40 AM6.8 °F6.8 °F100 %30.09 in10.0 miWNW (300°)8.1 mphClear
5:00 AM6.8 °F6.8 °F100 %30.09 in10.0 miWNW (300°)9.2 mphClear
5:20 AM6.8 °F6.8 °F100 %30.09 in10.0 miWNW (300°)9.2 mphClear
5:40 AM8.6 °F8.6 °F100 %30.10 in10.0 miWNW (300°)9.2 mphClear
6:00 AM8.6 °F8.6 °F100 %30.11 in10.0 miWNW (290°)10.4 mphClear
6:20 AM8.6 °F8.6 °F100 %30.12 in10.0 miWNW (300°)9.2 mphClear
6:40 AM8.6 °F8.6 °F100 %30.13 in10.0 miWNW (300°)10.4 mphClear
7:00 AM8.6 °F8.6 °F100 %30.14 in10.0 miWNW (300°)9.2 mphScattered Clouds
7:20 AM8.6 °F8.6 °F100 %30.15 in10.0 miWNW (300°)9.2 mphScattered Clouds
7:40 AM8.6 °F8.6 °F100 %30.15 in10.0 miNW (310°)8.1 mphMostly Cloudy
8:00 AM8.6 °F8.6 °F100 %30.16 in10.0 miWNW (300°)9.2 mphScattered Clouds
8:20 AM8.6 °F8.6 °F100 %30.17 in10.0 miWNW (300°)10.4 mphClear
8:40 AM8.6 °F8.6 °F100 %30.17 in10.0 miNW (320°)9.2 mphClear
9:00 AM10.4 °F10.4 °F100 %30.19 in10.0 miNNW (330°)11.5 mphScattered Clouds
9:20 AM10.4 °F10.4 °F100 %30.21 in10.0 miNorth (350°)16.1 mphScattered Clouds
9:40 AM10.4 °F10.4 °F100 %30.22 in10.0 miNorth (350°)17.3 mphPartly Cloudy
10:00 AM10.4 °F8.6 °F92 %30.23 in10.0 miNorth (350°)13.8 mphPartly Cloudy
10:20 AM10.4 °F8.6 °F92 %30.24 in10.0 miNorth (360°)15.0 mphPartly Cloudy
10:40 AM10.4 °F8.6 °F92 %30.25 in10.0 miNorth (350°)17.3 mphPartly Cloudy
11:00 AM10.4 °F8.6 °F92 %30.27 in10.0 miNorth (360°)16.1 mph20.7 mphClear
11:20 AM10.4 °F6.8 °F85 %30.29 in10.0 miNorth (360°)17.3 mphClear
11:40 AM10.4 °F8.6 °F92 %30.29 in10.0 miNorth (360°)16.1 mphClear
12:00 PM10.4 °F6.8 °F85 %30.29 in10.0 miNorth (360°)20.7 mphClear
12:20 PM10.4 °F6.8 °F85 %30.29 in10.0 miNNW (340°)17.3 mph21.9 mphClear
12:40 PM12.2 °F6.8 °F79 %30.30 in10.0 miNorth (350°)18.4 mph23.0 mphClear
1:00 PM10.4 °F5.0 °F79 %30.30 in10.0 miNorth (350°)18.4 mphClear
1:20 PM10.4 °F5.0 °F79 %30.30 in10.0 miNNW (330°)19.6 mphClear
1:40 PM10.4 °F1.4 °F67 %30.30 in10.0 miNorth (360°)18.4 mphClear
2:00 PM8.6 °F1.4 °F73 %30.31 in10.0 miNNW (340°)17.3 mphClear
2:20 PM8.6 °F1.4 °F73 %30.31 in10.0 miNorth (360°)17.3 mph21.9 mphClear
2:40 PM8.6 °F1.4 °F73 %30.32 in10.0 miNorth (360°)20.7 mph25.3 mphPartly Cloudy
3:00 PM8.6 °F-0.4 °F67 %30.33 in10.0 miNorth (360°)20.7 mph28.8 mphClear
3:20 PM6.8 °F-0.4 °F72 %30.34 in10.0 miNorth (350°)18.4 mphClear
3:40 PM6.8 °F1.4 °F79 %30.36 in10.0 miNorth (360°)13.8 mphScattered Clouds
4:00 PM6.8 °F-0.4 °F72 %30.38 in10.0 miNorth (10°)17.3 mphScattered Clouds
4:20 PM5.0 °F-0.4 °F78 %30.39 in10.0 miNorth (360°)15.0 mphScattered Clouds
4:40 PM5.0 °F-0.4 °F78 %30.40 in10.0 miNorth (360°)16.1 mphMostly Cloudy
5:00 PM3.2 °F-0.4 °F85 %30.40 in10.0 miNorth (360°)16.1 mphMostly Cloudy
5:20 PM3.2 °F-0.4 °F85 %30.42 in10.0 miNorth (360°)15.0 mphMostly Cloudy
5:40 PM1.4 °F-0.4 °F92 %30.41 in10.0 miNorth (10°)16.1 mphMostly Cloudy
6:00 PM1.4 °F-2.2 °F85 %30.42 in10.0 miNorth (10°)15.0 mphPartly Cloudy
6:20 PM1.4 °F-0.4 °F92 %30.42 in10.0 miNNE (20°)13.8 mphPartly Cloudy
6:40 PM1.4 °F-2.2 °F85 %30.44 in10.0 miNorth (10°)15.0 mphScattered Clouds
7:00 PM1.4 °F-2.2 °F85 %30.44 in10.0 miNorth (10°)15.0 mphMostly Cloudy
7:20 PM-0.4 °F-2.2 °F92 %30.44 in10.0 miNNE (20°)13.8 mphMostly Cloudy
7:40 PM-0.4 °F-4.0 °F85 %30.46 in10.0 miNNE (30°)10.4 mphMostly Cloudy
8:00 PM-0.4 °F-2.2 °F92 %30.47 in10.0 miNE (50°)12.7 mphMostly Cloudy
8:20 PM-0.4 °F-4.0 °F85 %30.47 in10.0 miNE (40°)12.7 mphScattered Clouds
8:40 PM-0.4 °F-5.8 °F78 %30.46 in10.0 miNE (50°)11.5 mphClear
9:00 PM-2.2 °F-7.6 °F78 %30.47 in10.0 miNNE (30°)11.5 mphClear
9:20 PM-2.2 °F-7.6 °F78 %30.48 in10.0 miNE (40°)9.2 mphClear
9:40 PM-2.2 °F-9.4 °F71 %30.48 in10.0 miNNE (20°)11.5 mphClear
10:00 PM-2.2 °F-9.4 °F71 %30.50 in10.0 miNNE (30°)10.4 mphMostly Cloudy
10:20 PM-4.0 °F-9.4 °F78 %30.50 in10.0 miNNE (30°)12.7 mphOvercast
10:40 PM-4.0 °F-9.4 °F78 %30.48 in10.0 miNE (50°)15.0 mphMostly Cloudy
11:00 PM-4.0 °F-11.2 °F71 %30.49 in10.0 miNE (40°)12.7 mphPartly Cloudy
11:40 PM-4.0 °F0.0 °F30.49 in10.0 miNE (40°)11.5 mphPartly Cloudy
Hourly data recorded from KMDS, located miles away from Howard, South Dakota







STORIES FROM OUR PARTNERS